KB1DML Weather Reports


time (UTC)temp
F
wind
direction
speed
knots
gust
knots
rain 1hr
in
rain 24hr
in
rain mn
in
humidity
%
barometer
mb
20260507070016 57 0 1.7 7.0 0.00 0.07 0.00 82 1004.4
20260507065516 58 293 0.9 4.3 0.00 0.07 0.00 82 1004.4
20260507065017 58 270 0.9 3.5 0.00 0.07 0.00 82 1004.5
20260507064517 58 270 0.9 5.2 0.00 0.07 0.00 82 1004.6
20260507064016 58 270 1.7 7.8 0.00 0.07 0.00 81 1004.7
20260507063517 58 0 2.6 9.6 0.00 0.07 0.00 81 1004.7
20260507063017 58 0 1.7 7.0 0.00 0.07 0.00 81 1004.8
20260507062516 58 248 1.7 4.3 0.00 0.07 0.00 82 1004.6
20260507062037 59 293 1.7 4.3 0.00 0.07 0.00 83 1004.5
20260507061516 59 270 0.9 4.3 0.00 0.07 0.00 83 1004.4
20260507061016 59 293 1.7 5.2 0.00 0.07 0.00 83 1004.4
20260507060517 59 270 0.9 3.5 0.00 0.07 0.00 83 1004.5
20260507060017 59 0 1.7 7.0 0.00 0.07 0.00 83 1004.7
20260507055517 59 0 0.9 4.3 0.00 0.07 0.00 83 1004.6
20260507055016 59 0 0.9 2.6 0.00 0.07 0.00 83 1004.8
20260507054516 59 0 0.9 6.1 0.00 0.07 0.00 83 1004.8
20260507054016 59 225 0.9 3.5 0.00 0.07 0.00 84 1005.2
20260507053537 60 225 0.9 2.6 0.00 0.07 0.00 85 1005.0
20260507053017 60 225 0.9 3.5 0.00 0.07 0.00 85 1004.9
20260507052517 60 225 0.9 3.5 0.00 0.07 0.00 85 1004.9
20260507052017 60 225 0.9 3.5 0.00 0.07 0.00 85 1004.7
20260507051517 60 225 1.7 3.5 0.00 0.07 0.00 86 1004.5
20260507051016 60 270 1.7 7.0 0.00 0.07 0.00 86 1004.6
20260507050516 60 225 1.7 10.4 0.00 0.07 0.00 87 1004.7
20260507050016 60 225 1.7 8.7 0.00 0.07 0.00 88 1004.7
20260507045516 60 270 1.7 4.3 0.00 0.07 0.00 89 1004.8
20260507045017 60 225 0.9 3.5 0.00 0.07 0.00 89 1004.7
20260507044516 61 225 0.9 4.3 0.00 0.07 0.00 90 1004.6
20260507044036 61 225 0.9 4.3 0.00 0.07 0.00 90 1004.6
20260507043516 61 225 1.7 6.1 0.00 0.07 0.00 90 1004.5
20260507043019 61 225 0.9 3.5 0.00 0.07 0.00 90 1004.5
20260507042516 61 225 0.9 2.6 0.00 0.07 0.00 90 1004.4
20260507042018 61 225 0.9 1.7 0.00 0.07 0.00 90 1004.4
20260507041516 61 225 0.9 1.7 0.00 0.07 0.00 90 1004.5
20260507041017 61 225 0.9 3.5 0.00 0.07 0.00 90 1004.6
20260507040516 61 225 0.9 1.7 0.00 0.07 0.00 90 1004.8
20260507040016 61 225 0.9 3.5 0.00 0.07 0.07 90 1004.9
20260507035515 61 225 0.9 3.5 0.00 0.07 0.07 90 1004.8
20260507035014 61 180 0.9 6.1 0.00 0.07 0.07 90 1004.7
20260507034538 60 180 0.9 6.1 0.00 0.07 0.07 90 1004.7
20260507034037 60 225 0.9 4.3 0.00 0.07 0.07 90 1004.6
20260507033516 60 180 0.9 4.3 0.00 0.07 0.07 90 1004.5
20260507033019 60 180 1.7 6.1 0.00 0.07 0.07 90 1004.5
20260507032516 60 180 1.7 7.0 0.00 0.07 0.07 90 1004.4
20260507032017 60 225 1.7 7.0 0.00 0.07 0.07 90 1004.4
20260507031516 60 180 1.7 3.5 0.00 0.07 0.07 90 1004.3
20260507031017 60 180 1.7 7.0 0.00 0.07 0.07 90 1004.3
20260507030517 60 203 0.9 3.5 0.00 0.07 0.07 91 1004.1
20260507030017 60 225 0.9 4.3 0.00 0.07 0.07 91 1004.1
20260507025516 60 158 0.9 4.3 0.00 0.07 0.07 90 1004.1
20260507025017 60 158 1.7 4.3 0.00 0.07 0.07 90 1004.1
20260507024517 60 225 0.9 4.3 0.00 0.07 0.07 90 1004.2
20260507024037 60 203 1.7 6.1 0.00 0.07 0.07 90 1004.4
20260507023516 60 203 0.9 4.3 0.00 0.07 0.07 90 1004.4
20260507023017 60 203 0.9 3.5 0.00 0.07 0.07 90 1004.3
20260507022516 60 225 0.9 3.5 0.00 0.07 0.07 90 1004.3
20260507022016 60 225 0.9 4.3 0.00 0.07 0.07 90 1004.2
20260507021518 60 225 1.7 5.2 0.00 0.07 0.07 90 1004.2
20260507021036 60 180 1.7 5.2 0.00 0.07 0.07 90 1004.3
20260507020537 60 225 1.7 5.2 0.00 0.07 0.07 90 1004.4
20260507020018 59 203 1.7 7.8 0.00 0.07 0.07 90 1004.3
20260507015557 59 203 1.7 5.2 0.00 0.07 0.07 90 1004.3
20260507015016 59 158 1.7 9.6 0.00 0.07 0.07 90 1004.3
20260507014516 59 135 2.6 7.0 0.00 0.07 0.07 90 1004.3
20260507014036 59 158 2.6 7.0 0.00 0.07 0.07 90 1004.4
20260507013536 59 158 1.7 10.4 0.00 0.07 0.07 90 1004.5
20260507013016 59 203 1.7 9.6 0.00 0.07 0.07 90 1004.5
20260507012516 59 158 1.7 7.0 0.00 0.07 0.07 90 1004.5
20260507012016 59 225 0.9 7.0 0.00 0.07 0.07 90 1004.6
20260507011516 59 225 1.7 6.1 0.00 0.07 0.07 90 1004.6
20260507011039 59 225 1.7 7.0 0.00 0.07 0.07 90 1004.7
20260507010517 59 203 1.7 4.3 0.00 0.07 0.07 90 1004.8
20260507010016 59 135 2.6 9.6 0.00 0.07 0.07 90 1004.8
20260507005516 59 180 2.6 9.6 0.01 0.07 0.07 90 1004.8
20260507005016 59 203 2.6 7.0 0.01 0.07 0.07 90 1004.8
20260507004516 59 225 1.7 6.1 0.02 0.07 0.07 90 1004.8
20260507004017 59 180 2.6 7.0 0.02 0.07 0.07 90 1004.8
20260507003516 59 158 2.6 9.6 0.02 0.07 0.07 90 1004.7
20260507003016 59 135 2.6 11.3 0.02 0.07 0.07 89 1004.7
20260507002536 59 135 2.6 9.6 0.02 0.07 0.07 89 1004.7
20260507002016 59 158 3.5 11.3 0.02 0.07 0.07 89 1004.6
20260507001557 59 158 2.6 10.4 0.02 0.07 0.07 89 1004.6
20260507001017 59 180 2.6 7.8 0.02 0.07 0.07 89 1004.5
20260507000516 59 135 3.5 13.0 0.03 0.07 0.07 89 1004.4
20260507000016 59 158 1.7 6.1 0.03 0.07 0.07 89 1004.4
20260506235516 59 158 2.6 9.6 0.02 0.06 0.06 89 1004.4
20260506235016 59 158 2.6 8.7 0.02 0.06 0.06 89 1004.5
20260506234517 59 158 2.6 8.7 0.01 0.05 0.05 89 1004.4
20260506234036 60 0 5.2 12.2 0.01 0.05 0.05 89 1004.4
20260506233536 60 0 3.5 9.6 0.01 0.05 0.05 89 1004.4
20260506233016 60 0 4.3 10.4 0.01 0.05 0.05 89 1004.3
20260506232536 60 0 3.5 9.6 0.01 0.05 0.05 89 1004.2
20260506232037 60 0 4.3 13.0 0.01 0.05 0.05 89 1004.3
20260506231536 60 0 4.3 16.5 0.01 0.05 0.05 89 1004.3
20260506231017 60 0 4.3 12.2 0.01 0.05 0.05 88 1004.3
20260506230537 60 0 5.2 11.3 0.00 0.04 0.04 89 1004.3
20260506230016 60 0 5.2 11.3 0.00 0.04 0.04 88 1004.3
20260506225518 60 0 3.5 12.2 0.01 0.04 0.04 88 1004.3
20260506225016 60 0 3.5 12.2 0.01 0.04 0.04 88 1004.3
20260506224516 61 0 5.2 12.2 0.01 0.04 0.04 88 1004.4
20260506224017 61 0 4.3 10.4 0.01 0.04 0.04 88 1004.5
20260506223516 61 0 4.3 13.9 0.02 0.04 0.04 88 1004.6
20260506223016 61 0 4.3 10.4 0.02 0.04 0.04 88 1004.6
20260506222516 61 0 4.3 13.0 0.02 0.04 0.04 87 1004.8
20260506222016 61 0 6.1 14.8 0.02 0.04 0.04 87 1004.8
20260506221517 62 0 5.2 12.2 0.02 0.04 0.04 87 1004.7
20260506221016 62 0 6.1 12.2 0.02 0.04 0.04 87 1005.0
20260506220516 62 0 3.5 10.4 0.02 0.04 0.04 86 1004.9
20260506220036 62 0 4.3 10.4 0.02 0.04 0.04 86 1004.9
20260506215537 63 158 4.3 9.6 0.01 0.03 0.03 86 1005.0
20260506215016 63 135 2.6 10.4 0.01 0.03 0.03 85 1005.0
20260506214516 63 158 3.5 15.6 0.02 0.03 0.03 85 1005.1
20260506214016 63 158 3.5 15.6 0.02 0.03 0.03 85 1005.1
20260506213516 63 158 2.6 10.4 0.01 0.02 0.02 84 1005.2
20260506213037 63 158 3.5 13.9 0.01 0.02 0.02 84 1005.2
20260506212516 63 158 4.3 12.2 0.01 0.02 0.02 83 1005.1
20260506212018 63 158 4.3 10.4 0.01 0.02 0.02 83 1005.1
20260506211516 63 158 3.5 10.4 0.01 0.02 0.02 83 1005.1
20260506211017 64 203 3.5 11.3 0.01 0.02 0.02 82 1005.2
20260506210516 63 0 4.3 13.0 0.01 0.02 0.02 82 1005.3
20260506210016 64 0 2.6 11.3 0.01 0.02 0.02 82 1005.4
20260506205536 64 0 3.5 13.0 0.01 0.02 0.02 81 1005.3
20260506205016 64 0 4.3 10.4 0.01 0.02 0.02 81 1005.4
20260506204517 64 0 4.3 11.3 0.01 0.01 0.01 80 1005.5
20260506204016 64 0 4.3 15.6 0.01 0.01 0.01 79 1005.5
20260506203516 64 0 4.3 15.6 0.01 0.01 0.01 79 1005.5
20260506203036 64 0 4.3 14.8 0.01 0.01 0.01 78 1005.3
20260506202516 64 0 4.3 12.2 0.01 0.01 0.01 78 1005.4
20260506202016 65 0 6.1 19.1 0.01 0.01 0.01 77 1005.3
20260506201516 65 0 7.0 13.9 0.01 0.01 0.01 76 1005.2
20260506201036 65 0 4.3 14.8 0.01 0.01 0.01 76 1005.2
20260506200537 65 0 6.1 16.5 0.01 0.01 0.01 75 1005.1
20260506200016 66 0 5.2 13.0 0.01 0.01 0.01 74 1005.2
20260506195536 66 0 3.5 12.2 0.01 0.01 0.01 73 1005.2
20260506195017 67 0 3.5 9.6 0.01 0.01 0.01 72 1005.4
20260506194536 67 0 5.2 13.0 0.00 0.00 0.00 71 1005.5
20260506194016 67 0 5.2 13.0 0.00 0.00 0.00 70 1005.6
20260506193516 68 0 3.5 11.3 0.00 0.00 0.00 69 1005.7
20260506193016 68 0 3.5 11.3 0.00 0.00 0.00 68 1005.7
20260506192516 68 0 6.1 15.6 0.00 0.00 0.00 67 1005.7
20260506192036 69 0 4.3 13.9 0.00 0.00 0.00 67 1005.6
20260506191518 69 135 4.3 16.5 0.00 0.00 0.00 65 1005.5
20260506191016 70 158 4.3 12.2 0.00 0.00 0.00 63 1005.5
20260506190516 70 0 3.5 11.3 0.00 0.00 0.00 62 1005.4
20260506190016 70 0 3.5 8.7 0.00 0.00 0.00 61 1005.4
20260506185516 70 0 6.1 13.0 0.00 0.00 0.00 60 1005.5
20260506185019 71 0 3.5 12.2 0.00 0.00 0.00 60 1005.6
20260506184516 71 0 4.3 12.2 0.00 0.00 0.00 59 1005.6
20260506184016 71 0 5.2 17.4 0.00 0.00 0.00 59 1005.6
20260506183516 71 180 5.2 13.9 0.00 0.00 0.00 59 1005.6
20260506183016 71 158 4.3 15.6 0.00 0.00 0.00 58 1005.6
20260506182536 72 158 5.2 20.0 0.00 0.00 0.00 58 1005.6
20260506182016 72 0 5.2 14.8 0.00 0.00 0.00 57 1005.7
20260506181515 72 0 6.1 14.8 0.00 0.00 0.00 57 1005.7
20260506181037 72 0 5.2 13.9 0.00 0.00 0.00 56 1005.7
20260506180516 72 0 4.3 15.6 0.00 0.00 0.00 56 1005.7
20260506180015 73 0 3.5 12.2 0.00 0.00 0.00 57 1005.9
20260506175516 73 0 7.8 18.2 0.00 0.00 0.00 57 1005.9
20260506175016 73 0 6.1 14.8 0.00 0.00 0.00 57 1005.9
20260506174516 72 0 5.2 14.8 0.00 0.00 0.00 58 1006.1
20260506174016 72 0 7.0 16.5 0.00 0.00 0.00 58 1006.2
20260506173516 72 0 7.0 13.9 0.00 0.00 0.00 59 1006.2
20260506173016 72 0 7.0 16.5 0.00 0.00 0.00 59 1006.3
20260506172516 72 0 7.0 14.8 0.00 0.00 0.00 59 1006.3
20260506172016 72 0 7.0 20.0 0.00 0.00 0.00 59 1006.3
20260506171516 72 0 7.0 20.9 0.00 0.00 0.00 58 1006.2
20260506171016 72 0 5.2 12.2 0.00 0.00 0.00 59 1006.1
20260506170516 72 0 5.2 12.2 0.00 0.00 0.00 59 1006.3
20260506170016 72 0 7.0 19.1 0.00 0.00 0.00 59 1006.3
20260506165516 72 0 4.3 13.0 0.00 0.00 0.00 58 1006.3
20260506165036 72 0 7.0 17.4 0.00 0.00 0.00 58 1006.4
20260506164516 72 0 7.0 16.5 0.00 0.00 0.00 58 1006.5
20260506164016 72 0 3.5 11.3 0.00 0.00 0.00 59 1006.5
20260506163536 72 0 5.2 19.1 0.00 0.00 0.00 58 1006.6
20260506163016 72 0 3.5 9.6 0.00 0.00 0.00 58 1006.6
20260506162515 72 0 7.0 16.5 0.00 0.00 0.00 58 1006.7
20260506162016 72 0 7.0 14.8 0.00 0.00 0.00 58 1006.9
20260506161516 72 0 4.3 12.2 0.00 0.00 0.00 58 1006.9
20260506161016 72 0 5.2 10.4 0.00 0.00 0.00 58 1007.0
20260506160535 72 0 2.6 8.7 0.00 0.00 0.00 58 1007.1
20260506160037 72 0 4.3 15.6 0.00 0.00 0.00 58 1007.2
20260506155516 72 0 5.2 11.3 0.00 0.00 0.00 58 1007.3
20260506155015 72 0 3.5 12.2 0.00 0.00 0.00 58 1007.4
20260506154535 72 0 4.3 19.1 0.00 0.00 0.00 57 1007.4
20260506154016 73 135 7.0 19.1 0.00 0.00 0.00 56 1007.5
20260506153536 73 0 7.8 13.9 0.00 0.00 0.00 56 1007.6
20260506153016 73 0 4.3 13.9 0.00 0.00 0.00 56 1007.6
20260506152515 73 0 5.2 16.5 0.00 0.00 0.00 56 1007.6
20260506152015 73 0 5.2 14.8 0.00 0.00 0.00 56 1007.7
20260506151538 73 135 6.1 18.2 0.00 0.00 0.00 56 1007.8
20260506151016 73 0 6.1 17.4 0.00 0.00 0.00 56 1007.9
20260506150515 73 0 6.1 17.4 0.00 0.00 0.00 57 1007.7
20260506150015 73 0 3.5 10.4 0.00 0.00 0.00 58 1007.9
20260506145515 72 0 5.2 16.5 0.00 0.00 0.00 58 1007.8
20260506145015 72 0 2.6 9.6 0.00 0.00 0.00 59 1007.7
20260506144515 72 0 3.5 9.6 0.00 0.00 0.00 59 1007.8
20260506144015 72 0 3.5 13.0 0.00 0.00 0.00 59 1007.8
20260506143536 72 135 3.5 12.2 0.00 0.00 0.00 60 1007.7
20260506143015 71 203 4.3 13.9 0.00 0.00 0.00 61 1007.7
20260506142515 71 0 5.2 14.8 0.00 0.00 0.00 61 1007.6
20260506142015 71 0 3.5 10.4 0.00 0.00 0.00 62 1007.7
20260506141518 71 0 4.3 13.9 0.00 0.00 0.00 62 1007.6
20260506141035 70 0 4.3 13.0 0.00 0.00 0.00 64 1007.6
20260506140515 69 0 6.1 14.8 0.00 0.00 0.00 64 1007.8
20260506140015 69 0 3.5 12.2 0.00 0.00 0.00 65 1007.7
20260506135516 69 0 3.5 14.8 0.00 0.00 0.00 66 1007.8
20260506135015 68 0 5.2 14.8 0.00 0.00 0.00 66 1007.6
20260506134515 68 0 3.5 11.3 0.00 0.00 0.00 67 1007.8
20260506134015 68 0 3.5 11.3 0.00 0.00 0.00 67 1008.2
20260506133515 68 0 1.7 6.1 0.00 0.00 0.00 68 1008.4
20260506133015 68 0 2.6 13.9 0.00 0.00 0.00 68 1008.4
20260506132536 67 0 3.5 10.4 0.00 0.00 0.00 68 1008.4
20260506132035 67 0 4.3 13.9 0.00 0.00 0.00 69 1008.3
20260506131515 67 0 5.2 11.3 0.00 0.00 0.00 69 1008.2
20260506131015 67 0 5.2 13.9 0.00 0.00 0.00 69 1008.2
20260506130515 66 158 5.2 13.0 0.00 0.00 0.00 71 1008.2
20260506130036 66 0 4.3 9.6 0.00 0.00 0.00 71 1008.3
20260506125515 66 0 4.3 12.2 0.00 0.00 0.00 72 1008.5
20260506125015 65 158 5.2 11.3 0.00 0.00 0.00 73 1008.4
20260506124536 65 158 3.5 10.4 0.00 0.00 0.00 74 1008.4
20260506124015 64 158 4.3 14.8 0.00 0.00 0.00 75 1008.7
20260506123515 64 0 2.6 8.7 0.00 0.00 0.00 76 1008.5
20260506123036 64 0 3.5 10.4 0.00 0.00 0.00 76 1008.5
20260506122535 63 0 3.5 12.2 0.00 0.00 0.00 76 1008.4
20260506122016 63 0 3.5 10.4 0.00 0.00 0.00 77 1008.3
20260506121515 63 0 3.5 8.7 0.00 0.00 0.00 77 1008.4
20260506121015 63 0 3.5 7.8 0.00 0.00 0.00 78 1008.4
20260506120515 62 0 6.1 16.5 0.00 0.00 0.00 78 1008.6
20260506120015 62 0 5.2 13.0 0.00 0.00 0.00 78 1008.8
20260506115515 62 0 5.2 10.4 0.00 0.00 0.00 78 1008.8
20260506115016 62 0 4.3 12.2 0.00 0.00 0.00 78 1008.6
20260506114515 62 0 5.2 12.2 0.00 0.00 0.00 78 1008.9
20260506114015 62 0 4.3 13.9 0.00 0.00 0.00 78 1009.1
20260506113515 62 0 3.5 9.6 0.00 0.00 0.00 79 1009.0
20260506113015 62 0 3.5 10.4 0.00 0.00 0.00 78 1008.9
20260506112515 62 158 3.5 12.2 0.00 0.00 0.00 79 1008.8
20260506112016 62 135 4.3 10.4 0.00 0.00 0.00 79 1008.8
20260506111515 62 158 3.5 10.4 0.00 0.00 0.00 79 1008.7
20260506111015 61 158 3.5 13.9 0.00 0.00 0.00 79 1008.6
20260506110515 61 158 5.2 12.2 0.00 0.00 0.00 79 1008.7
20260506110015 61 158 4.3 13.0 0.00 0.00 0.00 79 1008.6
20260506105536 61 0 5.2 10.4 0.00 0.00 0.00 79 1008.7
20260506105015 61 0 5.2 13.0 0.00 0.00 0.00 79 1008.7
20260506104515 61 0 3.5 14.8 0.00 0.00 0.00 79 1008.7
20260506104016 61 0 3.5 11.3 0.00 0.00 0.00 79 1008.8
20260506103515 61 0 2.6 9.6 0.00 0.00 0.00 79 1008.9
20260506103015 61 0 2.6 11.3 0.00 0.00 0.00 79 1008.9
20260506102515 61 0 2.6 7.8 0.00 0.00 0.00 79 1008.8
20260506102015 61 0 2.6 9.6 0.00 0.00 0.00 79 1008.8
20260506101515 61 0 3.5 8.7 0.00 0.00 0.00 79 1008.6
20260506101016 61 0 2.6 10.4 0.00 0.00 0.00 79 1008.7
20260506100515 61 0 3.5 10.4 0.00 0.00 0.00 79 1008.6
20260506100015 61 0 2.6 13.0 0.00 0.00 0.00 79 1008.5
20260506095515 61 0 2.6 11.3 0.00 0.00 0.00 79 1008.4
20260506095016 61 0 4.3 9.6 0.00 0.00 0.00 78 1008.5
20260506094517 61 0 2.6 11.3 0.00 0.00 0.00 78 1008.5
20260506094015 61 0 2.6 12.2 0.00 0.00 0.00 78 1008.5
20260506093515 61 0 1.7 7.8 0.00 0.00 0.00 78 1008.6
20260506093015 61 0 3.5 10.4 0.00 0.00 0.00 77 1008.5
20260506092515 61 0 2.6 11.3 0.00 0.00 0.00 77 1008.5
20260506092016 62 0 2.6 10.4 0.00 0.00 0.00 77 1008.5
20260506091515 62 0 3.5 10.4 0.00 0.00 0.00 77 1008.4
20260506091015 62 0 4.3 10.4 0.00 0.00 0.00 77 1008.4
20260506090535 62 0 3.5 10.4 0.00 0.00 0.00 77 1008.5
20260506090015 62 0 3.5 10.4 0.00 0.00 0.00 76 1008.6
20260506085515 62 0 3.5 13.0 0.00 0.00 0.00 76 1008.5
20260506085015 62 0 4.3 12.2 0.00 0.00 0.00 76 1008.5
20260506084535 62 0 2.6 9.6 0.00 0.00 0.00 76 1008.5
20260506084015 62 0 3.5 11.3 0.00 0.00 0.00 76 1008.5
20260506083556 62 0 3.5 10.4 0.00 0.00 0.00 76 1008.6
20260506083015 62 0 2.6 9.6 0.00 0.00 0.00 76 1008.6
20260506082515 62 0 2.6 13.0 0.00 0.00 0.00 75 1008.5
20260506082036 62 0 2.6 7.8 0.00 0.00 0.00 75 1008.5
20260506081557 62 135 3.5 9.6 0.00 0.00 0.00 75 1008.5
20260506081017 62 158 4.3 11.3 0.00 0.00 0.00 75 1008.5
20260506080516 62 158 3.5 10.4 0.00 0.00 0.00 75 1008.4
20260506073517 63 158 2.6 7.8 0.00 0.00 0.00 73 1008.4
20260506073017 63 135 2.6 7.8 0.00 0.00 0.00 73 1008.4
20260506072517 63 135 3.5 9.6 0.00 0.00 0.00 73 1008.4
20260506072017 63 158 2.6 11.3 0.00 0.00 0.00 73 1008.4
20260506071517 63 135 3.5 9.6 0.00 0.00 0.00 72 1008.3
20260506071036 63 158 2.6 8.7 0.00 0.00 0.00 72 1008.3
20260506070537 63 158 2.6 7.8 0.00 0.00 0.00 72 1008.3